Regional Weather Roundup
Issued by NWS

Home | Current Version | Previous Version | Graphics & Text | Print | Product List | Glossary On
Versions: 1 2 3 4 5 6 7 8 9 10 11 12 13 14 15 16 17 18 19 20 21 22 23 24 25 26 27 28 29 30 31 32 33 34 35 36 37 38 39 40 41 42 43 44 45 46 47 48 49 50
132
ASUS45 KCYS 281110
RWRWY

WYOMING REGIONAL WEATHER ROUNDUP
NATIONAL WEATHER SERVICE CHEYENNE WY
400 AM MST TUE FEB 28 2017

NOTE:  "FAIR" INDICATES FEW OR NO CLOUDS BELOW 12,000 FEET
WITH NO SIGNIFICANT WEATHER AND/OR OBSTRUCTIONS TO VISIBILITY.

WYZ001-281200-
YELLOWSTONE NATIONAL PARK

CITY           SKY/WX    TMP DP  RH WIND       PRES   REMARKS
LK YELLOWSTONE   N/A      8   6  92 CALM      29.60F
W YELLOWSTONE  NOT AVBL

$$
WYZ002>013-054>058-071-098>099-281200-
NORTHERN WYOMING

CITY           SKY/WX    TMP DP  RH WIND       PRES   REMARKS
JACKSON        CLOUDY    14  12  92 SW10      29.68F WCI   1
CODY           FAIR      24   3  40 W12G23    29.65S WCI  13
GREYBULL       FAIR      22  17  81 SE5       29.68R WCI  16
WORLAND        FAIR      18  11  74 S12       29.68S WCI   5
SHERIDAN       FAIR      19  13  77 VRB7      29.63F WCI  10
BUFFALO        FAIR      19  14  81 VRB5      29.62R WCI  12
GILLETTE       CLOUDY    23  21  92 NW9       29.63R WCI  13
HULETT         FLURRIES  23  21  93 NW3       29.60R
NEWCASTLE      FAIR      23  12  63 CALM      29.64S

$$
WYZ014>020-022>026-101>103-281200-
CENTRAL WYOMING

CITY           SKY/WX    TMP DP  RH WIND       PRES   REMARKS
BIG PINEY      FAIR     -12 -15  86 CALM      29.72F
PINEDALE       CLOUDY    -9 -15  77 W5        29.73S WCI -21
DUBOIS         FAIR      10  -2  56 NW13G20   29.61R WCI  -5
LANDER         FAIR      11  -7  44 SW6       29.67S WCI   1
RIVERTON       FAIR       9  -2  61 W5        29.67F WCI   1
CASPER         FAIR      13   1  59 SW14      29.68S WCI  -2
DOUGLAS        FAIR      13   3  64 N5        29.69R WCI   5

$$
WYZ021-027>030-104>119-281200-
SOUTHERN WYOMING

CITY           SKY/WX    TMP DP  RH WIND       PRES   REMARKS
EVANSTON       FAIR      10   5  80 SW7       29.71  HAZE    WCI  -1
KEMMERER         N/A    N/A N/A N/A NW3       29.70S
FORT BRIDGER   PTSUNNY   12  11  92 SW13      29.74S WCI  -2
ROCK SPRINGS   FAIR       8   3  80 W8        29.72S WCI  -4
DIXON            N/A     16  13  87 E5        29.77S WCI   9
RAWLINS        FAIR       9   2  73 S6        29.71S WCI  -1
SARATOGA       CLOUDY    14   7  73 SW5       29.72S WCI   6
LARAMIE        FAIR      11   5  77 W8        29.66S WCI  -1
CHEYENNE       CLOUDY    23   9  55 NW12      29.66R WCI  12
TORRINGTON     FAIR      27  11  51 W13       29.70S WCI  16
PINE BLUFFS    FAIR      27  12  54 W17G23    29.65R WCI  14

$$




USA.gov is the U.S. government's official web portal to all federal, state and local government web resources and services.